Nashua, NH

4:03 AM EDT on October 21, 2019 (GMT -0400)
Boire

Weather History for KASH - August, 2019

Change the Weather History Date:

Friday, August 9, 2019

  Actual Average Record
Temperature  
Mean Temperature 72 °F -  
Max Temperature 82 °F 82 °F 98 °F (2001)
Min Temperature 63 °F 59 °F 45 °F (1948)
Cooling Degree Days 8    
Growing Degree Days 22 (Base 50)    
Moisture  
Dew Point 58 °F    
Average Humidity 63    
Maximum Humidity 100    
Minimum Humidity 35    
Precipitation  
Precipitation 0.00 in - - ()
Sea Level Pressure  
Sea Level Pressure 29.70 in    
Wind  
Wind Speed 5 mph (West)    
Max Wind Speed 13 mph    
Max Gust Speed 22 mph    
Visibility 10 miles    
Events      
Averages and records for this station are not official NWS values.
T = Trace of Precipitation, MM = Missing Value Source: NWS Daily Summary

Daily Weather History Graph

Daily Weather History Graph

Search for Another Location

Airport or City:

Astronomy

Aug. 09, 2019 Rise Set
Actual Time 5:45 AM EDT 7:56 PM EDT
Civil Twilight 5:14 AM EDT 8:27 PM EDT
Nautical Twilight 4:35 AM EDT 9:06 PM EDT
Astronomical Twilight 3:53 AM EDT 9:48 PM EDT
Moon 3:36 PM EDT (8/9) 12:40 AM EDT (8/9)
Length of Visible Light 15h 13m
Length of Day
14h 11m
Waxing Gibbous, 70% of the Moon is Illuminated
Aug 9
Waxing Gibbous
Aug 15
Full
Aug 23
Last Quarter
Aug 30
New
Sep 5
First Quarter

Hourly Weather History & Observations

Time (EDT) Temp. Heat Index Dew Point Humidity Pressure Visibility Wind Dir Wind Speed Gust Speed Precip Events Conditions
12:56 AM 66.0 °F - 64.0 °F 93% 29.65 in 10.0 mi NW 5.8 mph - N/A   Clear
1:56 AM 66.0 °F - 63.0 °F 90% 29.66 in 10.0 mi Calm Calm - N/A   Clear
2:56 AM 66.9 °F - 63.0 °F 87% 29.67 in 10.0 mi West 8.1 mph - N/A   Clear
3:56 AM 66.9 °F - 63.0 °F 87% 29.68 in 10.0 mi SW 3.5 mph - N/A   Clear
4:56 AM 64.0 °F - 63.0 °F 96% 29.68 in 10.0 mi Calm Calm - N/A   Clear
5:56 AM 63.0 °F - 63.0 °F 100% 29.69 in 10.0 mi Calm Calm - N/A   Clear
6:56 AM 66.9 °F - 64.0 °F 90% 29.69 in 10.0 mi Calm Calm - N/A   Overcast
7:56 AM 69.1 °F - 64.9 °F 87% 29.71 in 10.0 mi Calm Calm - N/A   Clear
8:56 AM 73.9 °F - 63.0 °F 68% 29.70 in 10.0 mi WNW 12.7 mph - N/A   Clear
9:56 AM 75.0 °F - 60.1 °F 60% 29.71 in 10.0 mi WNW 12.7 mph - N/A   Clear
10:56 AM 78.1 °F - 59.0 °F 52% 29.71 in 10.0 mi WNW 10.4 mph - N/A   Partly Cloudy
11:56 AM 80.1 °F 80.4 °F 57.0 °F 45% 29.72 in 10.0 mi WNW 9.2 mph - N/A   Scattered Clouds
12:56 PM 81.0 °F 81.0 °F 57.0 °F 44% 29.70 in 10.0 mi WNW 11.5 mph 17.3 mph N/A   Mostly Cloudy
1:56 PM 80.1 °F 80.6 °F 57.9 °F 47% 29.70 in 10.0 mi West 9.2 mph 17.3 mph N/A   Mostly Cloudy
2:56 PM 82.0 °F 81.6 °F 55.9 °F 41% 29.69 in 10.0 mi West 9.2 mph 20.7 mph N/A   Scattered Clouds
3:56 PM 82.0 °F - 52.0 °F 35% 29.68 in 10.0 mi West 11.5 mph 21.9 mph N/A   Scattered Clouds
4:56 PM 82.9 °F 81.8 °F 53.1 °F 36% 29.68 in 10.0 mi West 6.9 mph 15.0 mph N/A   Scattered Clouds
5:56 PM 81.0 °F 80.5 °F 54.0 °F 39% 29.70 in 10.0 mi West 8.1 mph 16.1 mph N/A   Scattered Clouds
6:56 PM 78.1 °F - 54.0 °F 43% 29.70 in 10.0 mi West 4.6 mph - N/A   Scattered Clouds
7:56 PM 73.9 °F - 54.0 °F 50% 29.73 in 10.0 mi West 4.6 mph - N/A   Scattered Clouds
8:56 PM 72.0 °F - 53.1 °F 51% 29.73 in 10.0 mi West 8.1 mph - N/A   Scattered Clouds
9:56 PM 70.0 °F - 53.1 °F 55% 29.75 in 10.0 mi Calm Calm - N/A   Clear
10:56 PM 69.1 °F - 53.1 °F 57% 29.75 in 10.0 mi West 4.6 mph - N/A   Clear
11:56 PM 64.9 °F - 55.0 °F 70% 29.75 in 10.0 mi Calm Calm - N/A   Clear